User: anonymous   Login
Location: Albany
(35.0000°S, 118.0000°E)
Time: 02:20:19
(UTC-05:00)
Language:

ERS-1 Rocket - Orbit

View from above orbital plane
View from above orbital plane
View from above satellite
View from above satellite

Ground track
Ground track

The orbit data is extracted from the following two-line orbital elements,

1 21610U 91050F   17329.14985494  .00000032  00000-0  24163-4 0  9996
2 21610  98.5850  26.5239 0003489 163.9992 256.9859 14.40819901383293
Epoch (UTC): 25 November 2017 03:35:47
Eccentricity: 0.0003489
inclination: 98.5850°
perigee height: 753 km
apogee height: 758 km
right ascension of ascending node: 26.5239°
argument of perigee: 163.9992°
revolutions per day: 14.40819901
mean anomaly at epoch: 256.9859°
orbit number at epoch: 38329

The dashed part of the orbit path shows where the satellite is in the earth's shadow,  

DLR